Flag for Germany Weather past 2 weeks in Lehrte, Lower Saxony, Germany

Now
52 °F

Passing clouds.


Feels Like: 50 °F
Forecast: 48 / 74 °F
Wind: 5 mph from West

Location: Hannover

Current Time: Jul 31, 2015 at 4:00:28 AM

Latest Report: Jul 31, 2015 at 3:00 AM


Visibility: 19 mi

Pressure: 30.06 "Hg

Humidity: 84%

Dew point: 47 °F

Location of LehrteLocation

Historic Weather in Lehrte — Graph

°F

Lehrte temperature yesterday

Maximum temperature yesterday: 65 °F (at 2:00 PM)
Minimum temperature yesterday: 54 °F (at 7:00 AM)
Average temperature yesterday: 60 °F

Past Weeks' High & Low Weather Summary

 TemperatureHumidityPressure
High89 °F (Jul 17, 4:00 PM)97% (Jul 16, 4:00 AM)30.11 "Hg (Jul 16, 4:00 AM)
Low52 °F (Jul 31, 3:00 AM)34% (Jul 17, 4:00 PM)29.47 "Hg (Jul 25, 1:00 PM)
Average65 °F71%29.84 "Hg
* Reported Jul 16 3:00 AM — Jul 31 3:00 AM, Lehrte, Weather by CustomWeather, © 2015

Note: Actual official high and low records may vary slightly from our data, if they occured in-between our weather recording intervals... More about our weather records

Advertising

Lehrte weather history for previous 24 hours

 ConditionsComfort  
Time TempWeatherWind HumidityBarometerVisibility
3:00 AM
Fri, Jul 31
52 °FPassing clouds.5 mph84%30.06 "Hg19 mi
2:00 AM52 °FPassing clouds.3 mph83%30.05 "Hg22 mi
1:00 AM53 °FPassing clouds.5 mph81%30.04 "Hg22 mi
10:00 PM
Thu, Jul 30
55 °FPassing clouds.5 mph74%30.01 "Hg28 mi
9:00 PM59 °FScattered clouds.5 mph64%29.98 "Hg28 mi
8:00 PM62 °FScattered clouds.8 mph56%29.96 "Hg28 mi
7:00 PM64 °FPartly sunny.9 mph57%29.94 "Hg25 mi
6:00 PM64 °FScattered clouds.9 mph52%29.93 "Hg25 mi
4:00 PM65 °FPartly sunny.9 mph47%29.90 "Hg25 mi
3:00 PM65 °FPartly sunny.10 mph48%29.90 "Hg19 mi
2:00 PM65 °FPartly sunny.12 mph49%29.89 "Hg19 mi
1:00 PM64 °FPartly sunny.9 mph54%29.88 "Hg19 mi
12:00 PM62 °FPartly sunny.10 mph61%29.88 "Hg19 mi
10:00 AM59 °FPartly sunny.10 mph69%29.86 "Hg19 mi
9:00 AM58 °FPartly sunny.9 mph74%29.85 "Hg19 mi
8:00 AM55 °FOvercast.8 mph81%29.83 "Hg19 mi
7:00 AM54 °FPartly sunny.7 mph83%29.82 "Hg19 mi
4:00 AM55 °FOvercast.7 mph77%29.80 "Hg19 mi
Weather by CustomWeather, © 2015

See weather overviewHow to use our weather pages